DMSP 5D-2 F13 DEB, 40583

Orbit data source: Space-Track

DMSP 5D-2 F13 DEB, 40583 is space debris in SSO originally from a launch on Fri, 24 Mar 1995 UTC launched from the Air Force Western Test Range (AFWTR). Debris objects in space refer to the collection of defunct objects orbiting the Earth. Examples of debris include non-operational satellites, rocket bodies, and fragments generated from explosions, collisions, or faulty payload assembly.

Loading next visibility...
Identifier
40583, 1995-015ES
Orbit
SSO
Country
Flag of USUS
Related business
Manufacturer
Unknown
Mission
Spacecraft
Bus & Motor
Unknown
Mass
Unknown
Launch date (UTC)
1995-03-24 (31 years ago)
Launch vehicle
Unknown
Launch site
Air Force Western Test Range (AFWTR)
Object type
Payload
Rocket body
Debris
Shape & HBR
Unknown shape, 0.1 m
Radar Cross Section
Small (<0.1 m²)

Expand to show TLE details & history
Last TLE update: 10 hours ago

TLE from 10 hours ago
0 DMSP 5D-2 F13 DEB
1 40583U 95015ES  25292.04714185  .00024157  00000-0  52750-2 0  9990
2 40583  98.6051  13.9911 0028059 111.0974 249.3227 14.57542694551481
Epoch: 2025-10-19T01:07Z
TLE epoch observation values (Epoch: 2025-10-19T01:07:53.055Z)
Latitude
-0.00007°
Longitude
-30.74937°
Altitude
711.153 km
Speed
7.496 km/s
True Right ascension
00h 55m 57s
True Declination
0° 00' 00"
Sunlit
Object was in full shadow at epoch
Visualization orbit readout
Latitude
Unknown
Longitude
Unknown
Altitude
Unknown
Speed
Unknown
Apparent Right ascension
Unknown
Apparent Declination
Unknown
Sunlit
N/A
Visualization observer readout
Local Sidereal Time
06:18:00
Azimuth
Unknown
Elevation
Unknown
Doppler factor
Unknown
Orbital elements
Apogee altitude
718.079 km
Perigee altitude
678.368 km
Semi-major axis
7,076.36 km
Eccentricity
0.00281
Inclination
98.6051°
RAAN
13.9911°
Arg. of periapsis
111.0974°
True anomaly
249.02225°
Mean anomaly
249.3227°
Eccentric anomaly
249.17244°
Mean motion
3.6461 °/min
Orbital period
98.74 mins
BSTAR
0.005275

Documentation

Showing up to 5 results
|